Precipitable_Water
0.33 0.34 0.34 0.35 0.35 0.34 0.33 0.32 0.30 0.28 0.30 0.28 0.25 0.24 0.25 0.23 0.18 0.15 0.19 0.20 0.19 0.20 0.21 0.22 0.22 0.23 0.23 0.22 0.24 0.26 0.27 0.25 0.26 0.28 0.28 0.27 0.27 0.29 0.31 0.36 0.41 0.45 0.48 0.54 0.60 0.65 0.69 0.79 0.88 0.93 1.01 1.08 1.15 1.20 1.24 1.27 1.28 1.28 1.34 1.35 1.36 1.37 1.39 1.37 1.38 1.43 1.47 1.49 1.51 1.52 1.54 1.56 1.57 1.57 1.57 1.58 1.59 1.57 1.53 1.46 1.41 1.36 1.33 1.28 1.24 1.23 1.27
0.31 0.32 0.33 0.34 0.34 0.34 0.33 0.32 0.32 0.31 0.29 0.28 0.28 0.27 0.27 0.26 0.24 0.24 0.22 0.24 0.22 0.23 0.23 0.23 0.23 0.25 0.24 0.24 0.26 0.27 0.24 0.22 0.24 0.25 0.25 0.25 0.27 0.29 0.32 0.35 0.40 0.44 0.48 0.51 0.56 0.62 0.67 0.72 0.81 0.91 0.96 1.00 1.06 1.09 1.14 1.19 1.20 1.25 1.32 1.31 1.30 1.32 1.32 1.32 1.38 1.45 1.49 1.50 1.51 1.52 1.51 1.51 1.54 1.58 1.59 1.60 1.59 1.57 1.55 1.51 1.46 1.40 1.36 1.31 1.25 1.22 1.23
0.29 0.31 0.32 0.34 0.33 0.32 0.30 0.32 0.32 0.32 0.31 0.30 0.30 0.30 0.29 0.30 0.28 0.27 0.25 0.22 0.21 0.28 0.29 0.28 0.27 0.27 0.28 0.27 0.24 0.23 0.24 0.25 0.25 0.26 0.25 0.26 0.27 0.27 0.29 0.31 0.35 0.41 0.46 0.51 0.57 0.62 0.66 0.68 0.73 0.81 0.90 0.96 1.02 1.06 1.11 1.14 1.17 1.23 1.26 1.25 1.25 1.27 1.26 1.32 1.39 1.42 1.44 1.46 1.49 1.48 1.49 1.52 1.54 1.57 1.59 1.61 1.59 1.58 1.57 1.54 1.49 1.43 1.37 1.30 1.24 1.22 1.21
0.25 0.30 0.30 0.30 0.31 0.31 0.30 0.30 0.30 0.30 0.30 0.27 0.29 0.28 0.31 0.29 0.28 0.29 0.27 0.23 0.23 0.28 0.28 0.28 0.27 0.28 0.27 0.25 0.25 0.25 0.25 0.26 0.27 0.26 0.26 0.26 0.27 0.28 0.30 0.34 0.36 0.38 0.41 0.46 0.52 0.58 0.64 0.68 0.73 0.78 0.83 0.92 0.99 1.01 1.06 1.09 1.13 1.19 1.21 1.22 1.21 1.23 1.26 1.33 1.36 1.38 1.41 1.44 1.45 1.45 1.49 1.49 1.52 1.56 1.60 1.60 1.58 1.57 1.56 1.54 1.52 1.48 1.39 1.33 1.28 1.23 1.20
0.24 0.28 0.29 0.29 0.29 0.28 0.25 0.26 0.29 0.30 0.30 0.32 0.33 0.33 0.33 0.32 0.33 0.28 0.25 0.27 0.31 0.29 0.30 0.27 0.27 0.27 0.27 0.26 0.26 0.26 0.26 0.28 0.28 0.27 0.28 0.28 0.29 0.30 0.32 0.34 0.37 0.38 0.40 0.43 0.49 0.56 0.64 0.67 0.70 0.75 0.81 0.88 0.93 0.99 1.03 1.07 1.14 1.17 1.18 1.18 1.19 1.21 1.27 1.30 1.33 1.37 1.42 1.42 1.42 1.44 1.46 1.49 1.54 1.57 1.58 1.58 1.57 1.56 1.55 1.57 1.55 1.46 1.41 1.37 1.30 1.27 1.21
0.25 0.27 0.28 0.28 0.25 0.19 0.21 0.34 0.37 0.37 0.33 0.35 0.32 0.33 0.37 0.36 0.34 0.31 0.34 0.32 0.33 0.33 0.32 0.29 0.29 0.28 0.27 0.27 0.29 0.31 0.30 0.31 0.31 0.30 0.31 0.31 0.32 0.34 0.35 0.37 0.38 0.40 0.44 0.47 0.50 0.56 0.62 0.69 0.72 0.78 0.86 0.87 0.92 1.01 1.08 1.17 1.18 1.19 1.21 1.20 1.21 1.23 1.28 1.29 1.33 1.37 1.39 1.39 1.39 1.41 1.46 1.49 1.52 1.53 1.53 1.52 1.55 1.59 1.61 1.61 1.55 1.49 1.45 1.38 1.33 1.28 1.23
0.24 0.28 0.28 0.24 0.19 0.19 0.34 0.38 0.42 0.47 0.49 0.48 0.44 0.43 0.40 0.39 0.40 0.38 0.33 0.32 0.33 0.33 0.34 0.34 0.33 0.32 0.31 0.33 0.37 0.35 0.38 0.39 0.38 0.36 0.36 0.36 0.37 0.38 0.39 0.39 0.40 0.43 0.45 0.48 0.52 0.55 0.61 0.70 0.77 0.81 0.85 0.87 0.93 1.01 1.06 1.08 1.13 1.17 1.21 1.22 1.26 1.30 1.31 1.34 1.37 1.37 1.37 1.37 1.37 1.42 1.45 1.47 1.48 1.48 1.49 1.52 1.55 1.58 1.59 1.57 1.54 1.51 1.48 1.41 1.37 1.32 1.28
0.27 0.25 0.24 0.18 0.18 0.28 0.32 0.35 0.46 0.54 0.52 0.55 0.51 0.41 0.44 0.46 0.45 0.45 0.38 0.37 0.34 0.34 0.35 0.36 0.36 0.36 0.38 0.39 0.44 0.45 0.47 0.50 0.48 0.44 0.41 0.42 0.43 0.41 0.44 0.43 0.45 0.47 0.49 0.49 0.50 0.55 0.67 0.73 0.75 0.79 0.84 0.89 0.90 0.93 1.02 1.06 1.10 1.14 1.18 1.21 1.25 1.31 1.33 1.36 1.38 1.39 1.39 1.38 1.40 1.43 1.45 1.47 1.46 1.46 1.48 1.50 1.51 1.58 1.59 1.60 1.62 1.63 1.62 1.55 1.42 1.33 1.31
0.22 0.24 0.23 0.22 0.26 0.27 0.28 0.29 0.41 0.49 0.43 0.48 0.44 0.33 0.41 0.52 0.59 0.57 0.50 0.48 0.47 0.46 0.42 0.38 0.37 0.40 0.40 0.35 0.37 0.48 0.50 0.52 0.56 0.54 0.52 0.52 0.51 0.51 0.52 0.53 0.52 0.57 0.60 0.58 0.59 0.66 0.72 0.74 0.73 0.75 0.84 0.90 0.91 0.93 0.95 1.02 1.08 1.11 1.15 1.15 1.18 1.22 1.26 1.31 1.35 1.38 1.40 1.41 1.42 1.44 1.48 1.48 1.48 1.49 1.50 1.54 1.58 1.64 1.58 1.57 1.57 1.59 1.57 1.56 1.56 1.48 1.41
0.26 0.22 0.21 0.21 0.21 0.18 0.22 0.36 0.47 0.58 0.62 0.65 0.63 0.50 0.41 0.59 0.65 0.68 0.61 0.54 0.53 0.53 0.54 0.52 0.45 0.43 0.35 0.30 0.31 0.42 0.50 0.58 0.58 0.62 0.63 0.64 0.63 0.62 0.61 0.62 0.61 0.63 0.66 0.67 0.68 0.72 0.75 0.75 0.77 0.80 0.84 0.89 0.91 0.93 0.95 1.01 1.05 1.07 1.09 1.10 1.16 1.18 1.19 1.23 1.27 1.34 1.39 1.41 1.42 1.45 1.49 1.46 1.47 1.51 1.56 1.61 1.61 1.64 1.55 1.52 1.54 1.58 1.64 1.64 1.65 1.63 1.52
0.25 0.23 0.20 0.19 0.18 0.22 0.35 0.39 0.45 0.56 0.61 0.64 0.71 0.47 0.36 0.57 0.64 0.69 0.67 0.60 0.60 0.59 0.57 0.57 0.55 0.40 0.30 0.28 0.31 0.41 0.51 0.59 0.64 0.63 0.66 0.70 0.71 0.72 0.70 0.65 0.61 0.64 0.68 0.68 0.69 0.74 0.78 0.75 0.80 0.84 0.85 0.87 0.88 0.88 0.94 0.98 1.04 1.07 1.07 1.10 1.15 1.16 1.18 1.25 1.31 1.36 1.41 1.44 1.45 1.45 1.44 1.44 1.48 1.49 1.53 1.57 1.63 1.67 1.63 1.62 1.60 1.65 1.70 1.66 1.65 1.66 1.62
0.25 0.25 0.21 0.18 0.21 0.21 0.34 0.42 0.47 0.52 0.66 0.61 0.58 0.27 0.31 0.60 0.72 0.74 0.71 0.64 0.62 0.64 0.66 0.65 0.57 0.43 0.31 0.31 0.38 0.57 0.62 0.65 0.71 0.71 0.72 0.75 0.78 0.78 0.79 0.77 0.76 0.74 0.74 0.72 0.69 0.71 0.72 0.77 0.85 0.88 0.88 0.88 0.87 0.89 0.93 0.97 0.98 0.99 1.03 1.11 1.19 1.25 1.30 1.35 1.38 1.40 1.43 1.43 1.44 1.43 1.40 1.42 1.47 1.50 1.57 1.62 1.61 1.60 1.62 1.65 1.65 1.68 1.66 1.67 1.63 1.60 1.65
0.23 0.22 0.22 0.24 0.24 0.32 0.33 0.37 0.48 0.51 0.62 0.53 0.33 0.26 0.51 0.69 0.75 0.81 0.80 0.73 0.71 0.70 0.66 0.68 0.53 0.54 0.56 0.60 0.63 0.68 0.73 0.72 0.76 0.83 0.87 0.89 0.89 0.85 0.83 0.82 0.85 0.80 0.77 0.76 0.75 0.77 0.81 0.81 0.82 0.88 0.92 0.91 0.90 0.93 0.97 0.96 0.95 1.01 1.12 1.21 1.27 1.32 1.36 1.38 1.42 1.46 1.50 1.50 1.47 1.45 1.43 1.44 1.49 1.53 1.56 1.54 1.58 1.61 1.60 1.63 1.64 1.66 1.66 1.65 1.63 1.64 1.67
0.22 0.22 0.20 0.21 0.25 0.38 0.45 0.43 0.42 0.56 0.41 0.29 0.28 0.60 0.71 0.70 0.70 0.78 0.80 0.78 0.80 0.75 0.71 0.71 0.70 0.70 0.74 0.76 0.74 0.73 0.73 0.74 0.79 0.86 0.90 0.94 0.97 0.97 0.98 0.95 0.90 0.84 0.80 0.78 0.80 0.83 0.87 0.88 0.88 0.90 0.91 0.92 0.95 0.98 0.99 0.99 1.05 1.13 1.14 1.16 1.23 1.29 1.34 1.38 1.43 1.49 1.51 1.52 1.51 1.50 1.51 1.52 1.50 1.50 1.57 1.61 1.61 1.60 1.61 1.61 1.60 1.59 1.64 1.65 1.63 1.64 1.69
0.26 0.24 0.21 0.20 0.17 0.31 0.36 0.49 0.45 0.58 0.33 0.42 0.62 0.65 0.73 0.76 0.77 0.77 0.79 0.80 0.80 0.80 0.73 0.79 0.80 0.80 0.77 0.75 0.76 0.76 0.78 0.78 0.79 0.84 0.88 0.89 0.91 0.93 0.95 0.95 0.95 0.90 0.81 0.79 0.79 0.82 0.88 0.91 0.94 0.96 0.93 0.91 0.94 0.98 1.02 1.10 1.18 1.20 1.20 1.21 1.24 1.28 1.31 1.34 1.38 1.41 1.46 1.47 1.46 1.51 1.52 1.54 1.52 1.50 1.57 1.58 1.59 1.60 1.59 1.57 1.56 1.56 1.58 1.58 1.61 1.62 1.65
0.23 0.21 0.18 0.18 0.26 0.45 0.58 0.52 0.38 0.50 0.51 0.65 0.70 0.70 0.68 0.82 0.84 0.82 0.80 0.82 0.84 0.85 0.81 0.80 0.82 0.82 0.80 0.80 0.83 0.83 0.83 0.85 0.86 0.88 0.92 0.93 0.95 0.96 1.00 1.00 0.98 0.96 0.87 0.86 0.85 0.89 0.92 0.94 0.97 1.01 0.99 0.93 0.94 0.94 0.97 1.16 1.23 1.26 1.26 1.27 1.28 1.28 1.29 1.32 1.35 1.37 1.39 1.42 1.46 1.50 1.52 1.53 1.53 1.52 1.54 1.55 1.56 1.55 1.55 1.53 1.51 1.51 1.52 1.58 1.61 1.58 1.57
0.33 0.28 0.32 0.37 0.37 0.47 0.60 0.62 0.64 0.75 0.78 0.80 0.81 0.78 0.76 0.78 0.84 0.92 0.86 0.85 0.89 0.90 0.89 0.87 0.86 0.83 0.85 0.85 0.89 0.87 0.87 0.87 0.88 0.87 0.88 0.91 0.92 0.94 0.94 0.95 0.98 0.97 0.91 0.88 0.89 0.91 0.98 1.00 1.04 1.06 1.06 0.98 0.95 0.92 1.03 1.12 1.13 1.15 1.18 1.23 1.27 1.26 1.27 1.30 1.33 1.37 1.40 1.42 1.45 1.48 1.51 1.53 1.50 1.52 1.53 1.55 1.50 1.52 1.51 1.50 1.49 1.47 1.52 1.59 1.58 1.58 1.59
0.48 0.47 0.43 0.42 0.36 0.44 0.63 0.73 0.83 0.82 0.83 0.85 0.85 0.81 0.79 0.84 0.91 0.96 0.92 0.94 0.94 0.95 0.97 0.92 0.91 0.91 0.93 0.90 0.91 0.93 0.93 0.91 0.92 0.94 0.93 0.94 0.95 0.96 0.96 0.96 0.96 0.95 0.94 0.93 0.92 0.89 0.96 1.05 1.09 1.14 1.14 1.11 0.99 1.03 1.14 1.16 1.17 1.17 1.15 1.14 1.15 1.21 1.29 1.33 1.34 1.37 1.36 1.39 1.43 1.46 1.50 1.52 1.51 1.52 1.50 1.51 1.46 1.46 1.46 1.44 1.47 1.49 1.48 1.52 1.54 1.55 1.56
0.35 0.27 0.48 0.41 0.37 0.47 0.61 0.70 0.79 0.84 0.89 0.87 0.88 0.86 0.86 0.89 0.98 1.02 1.03 1.01 1.02 1.01 1.02 1.00 0.97 0.97 0.99 0.95 0.94 0.97 0.97 0.94 0.92 0.92 0.92 0.91 0.92 0.91 0.90 0.95 0.98 0.96 0.92 0.88 0.87 0.88 0.87 0.99 1.06 1.11 1.15 1.17 1.18 1.20 1.21 1.26 1.27 1.26 1.22 1.17 1.15 1.19 1.23 1.29 1.34 1.37 1.37 1.39 1.42 1.47 1.51 1.53 1.55 1.57 1.59 1.57 1.53 1.48 1.44 1.42 1.43 1.46 1.47 1.49 1.49 1.51 1.52
0.32 0.29 0.36 0.41 0.44 0.45 0.55 0.64 0.70 0.75 0.82 0.84 0.90 0.94 0.95 0.96 1.04 1.09 1.10 1.09 1.05 1.08 1.03 1.04 1.00 1.00 1.03 0.97 0.93 0.92 0.94 0.94 0.95 0.94 0.94 0.93 0.93 0.97 0.99 1.00 1.01 0.98 0.94 0.88 0.87 0.87 0.87 0.93 0.98 1.03 1.07 1.12 1.17 1.21 1.22 1.26 1.28 1.28 1.25 1.23 1.21 1.21 1.23 1.28 1.34 1.38 1.37 1.38 1.40 1.43 1.48 1.51 1.51 1.53 1.56 1.57 1.55 1.51 1.49 1.49 1.48 1.47 1.48 1.48 1.45 1.45 1.46
0.37 0.40 0.38 0.37 0.39 0.40 0.47 0.59 0.68 0.78 0.85 0.87 0.84 0.88 0.89 0.91 0.98 1.11 1.16 1.13 1.09 1.09 1.06 1.07 1.04 0.99 1.00 1.00 0.96 0.92 0.92 0.94 0.96 0.98 0.98 0.99 0.98 1.00 1.00 1.03 1.05 0.99 0.97 0.92 0.90 0.88 0.89 0.96 0.98 0.99 1.01 1.07 1.11 1.12 1.13 1.14 1.15 1.13 1.16 1.21 1.23 1.24 1.27 1.28 1.27 1.31 1.32 1.33 1.34 1.34 1.37 1.43 1.48 1.53 1.53 1.55 1.55 1.57 1.65 1.65 1.59 1.51 1.50 1.51 1.53 1.58 1.59
0.28 0.28 0.32 0.44 0.34 0.33 0.47 0.62 0.70 0.78 0.87 0.91 0.86 0.89 0.88 0.85 0.90 1.09 1.12 1.11 1.13 1.13 1.13 1.11 1.05 0.99 0.98 1.02 1.03 0.98 0.98 0.97 1.00 1.03 1.06 1.06 1.04 1.03 1.06 1.08 1.09 1.06 1.03 0.98 0.92 0.89 0.91 0.97 0.98 0.98 1.00 1.03 1.07 1.08 1.08 1.09 1.11 1.07 1.06 1.08 1.10 1.14 1.20 1.24 1.28 1.30 1.31 1.32 1.33 1.33 1.33 1.33 1.35 1.41 1.54 1.57 1.59 1.57 1.60 1.74 1.76 1.75 1.72 1.64 1.67 1.73 1.73
0.25 0.32 0.44 0.51 0.51 0.49 0.55 0.63 0.71 0.78 0.88 0.91 0.83 0.86 0.88 0.89 0.91 1.09 1.13 1.11 1.10 1.10 1.11 1.15 1.11 1.06 1.04 1.04 1.09 1.05 1.03 1.02 1.05 1.08 1.10 1.10 1.08 1.07 1.09 1.06 1.05 1.05 1.05 1.04 0.99 0.95 0.96 0.98 0.98 0.98 0.98 1.01 1.02 1.04 1.05 1.06 1.05 1.03 1.04 1.01 1.01 1.02 1.04 1.05 1.08 1.13 1.17 1.21 1.27 1.31 1.34 1.34 1.35 1.33 1.35 1.43 1.50 1.54 1.57 1.61 1.65 1.66 1.67 1.68 1.71 1.75 1.77
0.40 0.42 0.44 0.47 0.47 0.44 0.54 0.64 0.70 0.75 0.86 0.93 0.84 0.91 0.96 0.96 0.93 1.05 1.14 1.11 1.08 1.08 1.11 1.12 1.15 1.12 1.10 1.11 1.12 1.09 1.10 1.10 1.09 1.11 1.15 1.18 1.16 1.13 1.11 1.07 1.08 1.08 1.08 1.07 1.06 1.05 1.07 1.06 1.02 1.01 1.00 1.02 1.05 1.08 1.11 1.12 1.13 1.09 1.06 1.01 0.96 0.97 0.99 1.00 1.01 1.02 1.04 1.06 1.08 1.10 1.15 1.21 1.25 1.26 1.26 1.25 1.33 1.43 1.45 1.46 1.49 1.53 1.56 1.59 1.63 1.67 1.70
0.42 0.50 0.51 0.53 0.54 0.53 0.61 0.68 0.71 0.76 0.81 0.91 0.88 0.88 0.96 0.98 0.97 1.02 1.08 1.11 1.10 1.08 1.07 1.08 1.12 1.17 1.15 1.14 1.15 1.13 1.12 1.12 1.14 1.14 1.16 1.18 1.18 1.14 1.11 1.09 1.07 1.08 1.11 1.13 1.14 1.15 1.15 1.13 1.11 1.10 1.07 1.10 1.15 1.17 1.18 1.17 1.14 1.07 1.03 1.01 0.98 0.97 0.99 0.99 0.99 0.99 1.00 1.01 1.02 1.03 1.03 1.04 1.07 1.10 1.10 1.11 1.10 1.16 1.33 1.44 1.47 1.46 1.50 1.56 1.58 1.60 1.64
0.57 0.57 0.57 0.60 0.61 0.58 0.61 0.69 0.70 0.74 0.79 0.91 0.93 0.91 0.99 1.00 0.98 0.96 1.01 1.05 1.06 1.08 1.07 1.08 1.08 1.11 1.14 1.15 1.18 1.20 1.20 1.16 1.16 1.16 1.16 1.15 1.17 1.17 1.14 1.13 1.14 1.16 1.16 1.16 1.15 1.14 1.14 1.13 1.12 1.10 1.07 1.10 1.14 1.17 1.19 1.18 1.15 1.08 1.04 1.02 1.01 0.99 0.98 0.98 0.97 0.97 0.99 1.01 1.02 1.03 1.03 1.02 1.02 1.01 1.01 1.02 1.02 1.04 1.04 1.09 1.18 1.27 1.36 1.45 1.50 1.54 1.59
0.61 0.61 0.58 0.55 0.53 0.55 0.62 0.62 0.62 0.73 0.81 0.92 0.95 0.89 0.97 1.01 0.99 0.98 1.01 1.02 1.02 1.02 1.02 1.06 1.09 1.11 1.14 1.18 1.20 1.23 1.21 1.22 1.20 1.16 1.16 1.17 1.17 1.19 1.22 1.24 1.22 1.20 1.19 1.18 1.17 1.18 1.17 1.16 1.14 1.10 1.08 1.12 1.16 1.19 1.20 1.20 1.17 1.12 1.09 1.08 1.07 1.05 1.03 1.02 1.00 0.99 1.00 1.02 1.04 1.04 1.03 1.02 1.01 1.01 1.02 1.05 1.06 1.05 1.04 1.03 1.02 1.03 1.09 1.21 1.34 1.42 1.48
0.61 0.61 0.60 0.51 0.48 0.54 0.63 0.73 0.79 0.84 0.90 0.99 0.94 0.85 0.90 0.96 0.98 0.95 0.91 0.92 0.95 0.96 0.96 0.95 1.00 1.04 1.07 1.16 1.21 1.18 1.22 1.21 1.16 1.17 1.17 1.17 1.24 1.27 1.27 1.26 1.25 1.24 1.23 1.22 1.20 1.20 1.19 1.18 1.16 1.14 1.14 1.20 1.23 1.24 1.24 1.23 1.21 1.19 1.17 1.15 1.13 1.11 1.09 1.07 1.05 1.04 1.04 1.05 1.07 1.06 1.04 1.04 1.05 1.04 1.06 1.07 1.07 1.09 1.11 1.12 1.10 1.08 1.10 1.18 1.21 1.29 1.41
0.64 0.65 0.67 0.66 0.65 0.70 0.79 0.85 0.88 0.93 0.93 1.00 0.99 0.90 0.86 0.88 0.91 0.89 0.89 0.91 0.93 0.96 0.94 0.95 0.93 0.96 1.05 1.13 1.19 1.19 1.19 1.17 1.16 1.16 1.19 1.26 1.31 1.32 1.33 1.31 1.30 1.28 1.27 1.27 1.28 1.27 1.25 1.22 1.20 1.17 1.18 1.26 1.28 1.28 1.27 1.26 1.24 1.22 1.21 1.20 1.18 1.15 1.12 1.10 1.08 1.07 1.07 1.09 1.09 1.09 1.08 1.09 1.08 1.07 1.07 1.07 1.08 1.08 1.08 1.06 1.04 1.05 1.06 1.11 1.18 1.24 1.35
0.71 0.70 0.69 0.72 0.78 0.82 0.80 0.76 0.84 0.97 0.97 0.98 0.91 0.86 0.86 0.82 0.82 0.86 0.87 0.90 0.94 0.95 0.99 1.02 0.98 0.96 1.00 1.02 1.08 1.15 1.16 1.15 1.17 1.20 1.22 1.24 1.28 1.34 1.36 1.36 1.33 1.30 1.28 1.26 1.27 1.29 1.27 1.25 1.23 1.20 1.23 1.29 1.30 1.30 1.29 1.27 1.26 1.26 1.25 1.24 1.21 1.18 1.15 1.13 1.11 1.11 1.10 1.11 1.12 1.12 1.12 1.11 1.10 1.08 1.06 1.06 1.07 1.07 1.06 1.06 1.07 1.07 1.07 1.13 1.20 1.24 1.31
0.72 0.71 0.69 0.75 0.81 0.79 0.77 0.76 0.91 0.98 1.01 0.97 0.91 0.85 0.86 0.86 0.84 0.85 0.86 0.91 0.95 0.98 1.01 1.02 1.02 1.02 1.03 1.06 1.12 1.15 1.16 1.16 1.17 1.19 1.21 1.21 1.24 1.27 1.31 1.32 1.25 1.19 1.19 1.23 1.26 1.26 1.25 1.24 1.25 1.25 1.31 1.33 1.32 1.31 1.29 1.26 1.26 1.26 1.26 1.25 1.24 1.21 1.19 1.17 1.15 1.16 1.16 1.16 1.17 1.16 1.14 1.13 1.10 1.07 1.05 1.06 1.09 1.11 1.12 1.12 1.10 1.10 1.10 1.17 1.22 1.30 1.47
0.78 0.78 0.73 0.75 0.79 0.76 0.76 0.89 0.96 0.97 0.99 0.96 0.91 0.84 0.84 0.85 0.85 0.84 0.89 0.93 0.96 0.98 1.01 1.01 1.02 1.03 1.06 1.12 1.12 1.12 1.12 1.13 1.11 1.10 1.10 1.14 1.15 1.18 1.22 1.23 1.25 1.25 1.27 1.26 1.27 1.27 1.26 1.25 1.23 1.28 1.35 1.35 1.33 1.32 1.29 1.26 1.25 1.24 1.23 1.26 1.27 1.27 1.25 1.23 1.22 1.22 1.22 1.21 1.22 1.21 1.20 1.16 1.11 1.11 1.11 1.11 1.12 1.16 1.19 1.18 1.15 1.12 1.13 1.20 1.40 1.65 1.73
0.78 0.76 0.74 0.73 0.76 0.77 0.82 0.90 0.91 0.91 0.96 0.93 0.91 0.89 0.89 0.91 0.95 0.97 0.97 0.99 1.02 1.06 1.05 1.04 1.06 1.09 1.13 1.13 1.12 1.11 1.12 1.11 1.11 1.09 1.07 1.07 1.08 1.09 1.11 1.12 1.14 1.16 1.18 1.21 1.23 1.23 1.20 1.18 1.20 1.29 1.32 1.33 1.31 1.30 1.30 1.29 1.27 1.26 1.28 1.30 1.30 1.30 1.28 1.28 1.26 1.27 1.26 1.25 1.24 1.25 1.25 1.22 1.19 1.17 1.18 1.18 1.22 1.23 1.24 1.22 1.22 1.20 1.21 1.27 1.38 1.41 1.54
0.80 0.80 0.81 0.80 0.75 0.73 0.80 0.87 0.93 0.94 0.96 0.99 0.96 0.93 0.94 0.96 0.98 1.03 0.99 1.00 1.03 1.05 1.06 1.07 1.11 1.16 1.16 1.15 1.15 1.16 1.15 1.12 1.08 1.09 1.11 1.12 1.12 1.14 1.17 1.19 1.19 1.17 1.16 1.18 1.18 1.17 1.18 1.20 1.22 1.24 1.26 1.28 1.27 1.27 1.27 1.28 1.29 1.28 1.28 1.29 1.29 1.29 1.28 1.29 1.31 1.29 1.27 1.26 1.28 1.30 1.30 1.28 1.27 1.25 1.27 1.29 1.30 1.32 1.28 1.26 1.25 1.23 1.21 1.25 1.32 1.38 1.44
0.94 0.93 0.93 0.94 0.92 0.91 0.90 0.89 0.92 0.96 0.96 0.96 0.97 0.97 0.99 1.00 1.03 1.01 1.04 1.06 1.04 1.07 1.12 1.15 1.17 1.19 1.19 1.18 1.18 1.16 1.14 1.10 1.09 1.09 1.10 1.12 1.13 1.16 1.19 1.19 1.18 1.16 1.14 1.15 1.16 1.17 1.20 1.23 1.24 1.24 1.24 1.25 1.26 1.26 1.26 1.26 1.26 1.26 1.27 1.27 1.27 1.29 1.30 1.31 1.32 1.32 1.30 1.31 1.35 1.33 1.32 1.31 1.30 1.35 1.38 1.38 1.38 1.38 1.34 1.30 1.29 1.31 1.30 1.30 1.32 1.37 1.40
0.96 0.92 0.92 0.92 0.94 0.97 0.98 0.97 0.99 1.00 1.01 1.00 1.00 1.00 1.03 1.08 1.05 1.04 1.07 1.10 1.14 1.16 1.17 1.18 1.19 1.16 1.14 1.11 1.08 1.09 1.08 1.10 1.10 1.11 1.11 1.12 1.14 1.17 1.16 1.13 1.10 1.08 1.08 1.09 1.17 1.21 1.22 1.22 1.22 1.23 1.22 1.21 1.21 1.23 1.26 1.26 1.27 1.27 1.27 1.27 1.27 1.28 1.30 1.31 1.32 1.35 1.37 1.38 1.39 1.39 1.39 1.35 1.34 1.35 1.39 1.39 1.40 1.43 1.40 1.38 1.36 1.39 1.40 1.40 1.39 1.38 1.39
0.98 0.93 0.92 0.93 0.95 0.96 0.98 1.01 1.05 1.06 1.03 1.04 1.04 1.06 1.08 1.09 1.07 1.13 1.15 1.15 1.17 1.19 1.20 1.22 1.17 1.11 1.07 1.09 1.10 1.12 1.12 1.12 1.11 1.10 1.11 1.13 1.14 1.13 1.11 1.09 1.07 1.04 1.04 1.01 1.09 1.18 1.17 1.17 1.18 1.17 1.16 1.16 1.17 1.19 1.22 1.24 1.25 1.27 1.27 1.27 1.26 1.26 1.26 1.26 1.29 1.30 1.32 1.37 1.38 1.39 1.39 1.40 1.38 1.37 1.38 1.38 1.36 1.37 1.39 1.38 1.40 1.39 1.40 1.44 1.46 1.44 1.40
0.99 0.99 0.96 0.95 0.96 0.97 1.03 1.04 1.04 1.10 1.11 1.11 1.10 1.12 1.09 1.12 1.18 1.20 1.18 1.19 1.19 1.21 1.20 1.19 1.14 1.11 1.11 1.12 1.12 1.11 1.11 1.13 1.12 1.12 1.13 1.12 1.12 1.08 1.06 1.04 1.03 1.05 1.02 1.05 1.16 1.18 1.16 1.16 1.15 1.14 1.13 1.12 1.13 1.15 1.16 1.19 1.21 1.23 1.24 1.24 1.24 1.25 1.24 1.24 1.23 1.23 1.25 1.29 1.33 1.33 1.34 1.33 1.36 1.35 1.36 1.34 1.33 1.33 1.34 1.37 1.38 1.40 1.41 1.42 1.45 1.47 1.43
1.00 0.99 1.01 1.01 1.01 1.02 1.05 1.09 1.13 1.12 1.09 1.07 1.10 1.11 1.14 1.17 1.20 1.20 1.17 1.16 1.18 1.18 1.16 1.15 1.15 1.12 1.11 1.08 1.06 1.08 1.10 1.11 1.11 1.09 1.09 1.09 1.11 1.05 1.02 1.04 1.06 1.08 1.10 1.15 1.16 1.15 1.14 1.09 1.05 1.04 1.03 1.05 1.09 1.13 1.15 1.16 1.20 1.21 1.22 1.22 1.23 1.22 1.22 1.22 1.22 1.23 1.23 1.24 1.22 1.23 1.25 1.27 1.29 1.30 1.34 1.38 1.39 1.35 1.34 1.34 1.36 1.39 1.41 1.42 1.47 1.48 1.49
1.01 1.01 1.01 1.02 1.04 1.07 1.08 1.07 1.11 1.13 1.14 1.15 1.14 1.15 1.18 1.16 1.14 1.13 1.12 1.12 1.14 1.18 1.13 1.12 1.09 1.05 1.03 1.00 0.98 0.99 1.03 1.05 1.06 1.05 1.04 1.04 1.03 1.02 1.01 1.03 1.08 1.10 1.12 1.11 1.10 1.09 1.07 1.04 1.02 1.00 1.01 1.03 1.05 1.08 1.11 1.14 1.16 1.19 1.20 1.20 1.19 1.19 1.20 1.22 1.22 1.20 1.20 1.22 1.21 1.21 1.21 1.22 1.25 1.28 1.30 1.32 1.35 1.40 1.38 1.39 1.41 1.42 1.43 1.44 1.47 1.52 1.50
0.99 1.01 1.04 1.04 1.06 1.07 1.06 1.05 1.05 1.10 1.11 1.11 1.12 1.15 1.16 1.14 1.11 1.09 1.07 1.08 1.10 1.09 1.07 1.05 1.02 1.00 0.98 0.96 0.94 0.95 0.98 1.00 1.02 1.01 1.02 1.00 0.97 0.96 0.94 0.94 1.04 1.09 1.10 1.10 1.10 1.09 1.07 1.05 1.04 1.01 1.01 1.02 1.02 1.04 1.05 1.07 1.09 1.11 1.14 1.18 1.19 1.20 1.19 1.19 1.19 1.19 1.20 1.20 1.21 1.21 1.22 1.22 1.23 1.26 1.29 1.32 1.33 1.37 1.39 1.41 1.43 1.45 1.44 1.44 1.45 1.43 1.44
0.97 0.99 0.99 0.99 1.00 1.01 1.03 1.04 1.05 1.05 1.05 1.08 1.09 1.10 1.09 1.09 1.06 1.05 1.06 1.07 1.06 1.05 1.04 1.04 1.03 1.00 0.98 0.97 0.95 0.95 0.96 0.97 0.98 0.98 0.98 0.96 0.95 0.93 0.90 0.93 1.03 1.04 1.06 1.05 1.06 1.07 1.07 1.06 1.05 1.04 1.03 1.03 1.03 1.03 1.02 1.02 1.03 1.04 1.06 1.09 1.11 1.13 1.14 1.15 1.17 1.19 1.22 1.23 1.23 1.23 1.24 1.25 1.24 1.24 1.28 1.33 1.37 1.39 1.40 1.39 1.41 1.42 1.41 1.45 1.44 1.43 1.47
0.91 0.91 0.92 0.93 0.94 0.96 0.96 0.97 0.96 0.96 0.97 1.00 1.03 1.04 1.04 1.03 1.02 1.02 1.02 1.01 1.00 1.00 1.00 1.00 1.00 1.00 0.99 0.97 0.95 0.94 0.95 0.97 0.97 0.96 0.96 0.98 1.00 0.99 0.95 0.95 0.99 0.99 0.98 0.97 0.99 1.00 1.02 1.04 1.04 1.05 1.06 1.04 1.04 1.03 1.03 1.02 1.02 1.01 1.01 1.03 1.05 1.07 1.08 1.09 1.09 1.10 1.11 1.13 1.16 1.19 1.22 1.25 1.26 1.27 1.28 1.29 1.35 1.38 1.40 1.38 1.38 1.39 1.43 1.44 1.40 1.40 1.40
0.90 0.91 0.89 0.89 0.90 0.92 0.93 0.93 0.94 0.94 0.92 0.94 0.97 0.97 0.97 0.97 0.98 0.97 0.97 0.97 0.97 0.98 0.96 0.96 0.95 0.95 0.94 0.93 0.92 0.91 0.92 0.93 0.93 0.94 0.91 0.91 0.92 0.96 0.99 0.97 0.95 0.95 0.93 0.92 0.93 0.94 0.95 0.97 0.99 1.00 1.00 1.01 1.00 0.99 0.99 0.99 0.98 0.98 0.98 0.99 1.00 1.02 1.03 1.04 1.04 1.04 1.04 1.03 1.03 1.06 1.11 1.17 1.23 1.26 1.29 1.31 1.33 1.35 1.36 1.38 1.38 1.34 1.32 1.33 1.34 1.35 1.38
0.88 0.89 0.88 0.89 0.90 0.91 0.91 0.90 0.89 0.89 0.90 0.90 0.89 0.89 0.90 0.90 0.90 0.91 0.90 0.89 0.89 0.89 0.90 0.89 0.89 0.88 0.88 0.87 0.86 0.87 0.88 0.89 0.89 0.89 0.83 0.81 0.79 0.83 0.91 0.90 0.88 0.87 0.87 0.86 0.86 0.88 0.90 0.91 0.92 0.91 0.92 0.93 0.94 0.94 0.93 0.93 0.93 0.93 0.94 0.94 0.94 0.94 0.95 0.96 0.97 0.98 0.99 1.00 0.99 1.00 1.01 1.02 1.07 1.15 1.22 1.25 1.27 1.29 1.33 1.35 1.34 1.35 1.33 1.33 1.33 1.33 1.34
0.86 0.88 0.89 0.88 0.86 0.85 0.86 0.86 0.87 0.88 0.86 0.84 0.84 0.85 0.87 0.87 0.87 0.87 0.88 0.87 0.86 0.86 0.86 0.85 0.85 0.84 0.84 0.82 0.82 0.82 0.82 0.82 0.82 0.82 0.80 0.77 0.73 0.76 0.80 0.79 0.79 0.79 0.78 0.77 0.77 0.78 0.80 0.82 0.82 0.82 0.82 0.83 0.83 0.84 0.85 0.87 0.88 0.88 0.88 0.88 0.89 0.89 0.89 0.89 0.90 0.89 0.90 0.92 0.94 0.96 0.98 1.00 1.01 1.03 1.06 1.10 1.16 1.20 1.24 1.27 1.28 1.32 1.33 1.31 1.31 1.31 1.32
0.84 0.84 0.85 0.85 0.85 0.87 0.87 0.87 0.86 0.83 0.82 0.81 0.79 0.80 0.84 0.86 0.85 0.85 0.85 0.86 0.85 0.84 0.84 0.83 0.82 0.81 0.81 0.80 0.77 0.74 0.71 0.70 0.71 0.74 0.74 0.74 0.74 0.72 0.71 0.70 0.69 0.69 0.68 0.68 0.68 0.68 0.68 0.67 0.68 0.69 0.70 0.71 0.71 0.72 0.74 0.76 0.77 0.79 0.80 0.82 0.83 0.84 0.84 0.84 0.84 0.85 0.85 0.86 0.86 0.87 0.89 0.93 0.96 0.98 0.98 1.01 1.05 1.08 1.12 1.15 1.18 1.20 1.23 1.27 1.29 1.28 1.27
0.79 0.79 0.81 0.82 0.82 0.83 0.83 0.82 0.80 0.78 0.77 0.76 0.77 0.79 0.81 0.82 0.82 0.81 0.81 0.81 0.81 0.81 0.80 0.79 0.79 0.78 0.77 0.75 0.74 0.73 0.71 0.67 0.61 0.63 0.69 0.69 0.69 0.68 0.67 0.66 0.65 0.64 0.62 0.62 0.62 0.62 0.62 0.60 0.59 0.58 0.59 0.60 0.62 0.64 0.65 0.67 0.69 0.71 0.72 0.73 0.74 0.76 0.77 0.78 0.80 0.80 0.81 0.82 0.82 0.82 0.81 0.82 0.84 0.86 0.91 0.93 0.96 0.99 1.03 1.07 1.10 1.11 1.13 1.13 1.13 1.17 1.23
0.76 0.78 0.79 0.79 0.78 0.77 0.76 0.75 0.75 0.74 0.74 0.77 0.77 0.77 0.78 0.78 0.77 0.77 0.76 0.76 0.75 0.74 0.73 0.73 0.73 0.72 0.72 0.73 0.72 0.70 0.70 0.70 0.65 0.61 0.65 0.66 0.65 0.64 0.64 0.63 0.62 0.61 0.60 0.60 0.60 0.61 0.62 0.59 0.58 0.57 0.56 0.56 0.56 0.57 0.59 0.60 0.62 0.64 0.66 0.67 0.68 0.70 0.71 0.73 0.75 0.77 0.77 0.77 0.78 0.79 0.79 0.79 0.79 0.79 0.79 0.81 0.84 0.89 0.92 0.94 0.97 1.02 1.06 1.10 1.12 1.14 1.15
0.68 0.72 0.74 0.74 0.74 0.74 0.74 0.72 0.71 0.72 0.74 0.75 0.74 0.75 0.75 0.73 0.69 0.68 0.70 0.69 0.68 0.68 0.67 0.67 0.67 0.68 0.67 0.67 0.66 0.66 0.66 0.64 0.64 0.64 0.63 0.61 0.59 0.58 0.57 0.57 0.57 0.57 0.56 0.56 0.56 0.57 0.58 0.57 0.55 0.54 0.54 0.54 0.54 0.55 0.55 0.55 0.55 0.57 0.59 0.61 0.63 0.64 0.65 0.67 0.68 0.70 0.72 0.74 0.75 0.75 0.75 0.76 0.76 0.77 0.77 0.77 0.78 0.79 0.81 0.84 0.87 0.90 0.93 0.97 1.03 1.06 1.08
0.57 0.59 0.61 0.64 0.66 0.68 0.69 0.69 0.69 0.69 0.69 0.69 0.70 0.70 0.68 0.65 0.63 0.63 0.63 0.63 0.63 0.61 0.59 0.59 0.60 0.60 0.60 0.60 0.60 0.60 0.59 0.59 0.58 0.58 0.57 0.56 0.55 0.54 0.53 0.52 0.52 0.52 0.52 0.52 0.52 0.52 0.54 0.55 0.54 0.53 0.52 0.52 0.51 0.51 0.52 0.52 0.52 0.52 0.52 0.53 0.54 0.57 0.58 0.60 0.60 0.61 0.63 0.65 0.66 0.69 0.71 0.72 0.73 0.73 0.73 0.74 0.75 0.75 0.76 0.76 0.78 0.80 0.83 0.85 0.87 0.91 0.95
0.52 0.53 0.54 0.56 0.56 0.57 0.57 0.58 0.60 0.61 0.61 0.61 0.60 0.59 0.58 0.57 0.56 0.55 0.56 0.57 0.56 0.54 0.54 0.53 0.51 0.54 0.55 0.54 0.54 0.55 0.56 0.55 0.54 0.53 0.53 0.53 0.52 0.51 0.51 0.50 0.49 0.49 0.49 0.49 0.49 0.50 0.50 0.51 0.52 0.52 0.52 0.51 0.51 0.51 0.51 0.50 0.50 0.49 0.50 0.51 0.51 0.50 0.50 0.52 0.53 0.54 0.56 0.57 0.57 0.58 0.61 0.64 0.66 0.67 0.69 0.71 0.71 0.71 0.72 0.73 0.73 0.74 0.74 0.76 0.79 0.81 0.82
Wind_Speed
28 29 28 28 28 29 30 30 30 30 28 28 29 30 29 27 27 27 24 25 27 26 23 22 19 17 16 16 14 12 12 12 11 10 12 13 14 15 18 20 21 22 22 23 23 22 21 22 25 25 26 27 28 28 29 30 30 31 30 30 30 30 30 30 30 30 30 29 28 28 27 27 26 26 25 24 23 23 22 23 23 24 26 27 27 28 28
29 29 29 29 29 29 30 31 32 33 32 32 31 31 31 30 30 28 26 26 27 24 23 24 23 20 20 19 18 16 16 15 14 13 13 13 13 14 15 16 18 19 21 22 23 23 22 22 23 25 26 27 27 28 29 29 30 30 30 30 30 30 30 29 29 29 30 30 29 29 29 28 28 27 26 25 25 24 24 23 23 24 25 26 27 28 28
30 30 30 29 29 30 32 33 33 34 34 34 33 32 31 31 30 30 30 30 28 24 22 23 23 21 20 20 20 20 21 20 18 17 16 14 14 14 14 15 16 18 19 20 21 22 22 22 23 24 26 27 27 28 29 29 30 30 30 30 30 30 29 29 29 29 30 30 30 30 30 29 29 29 28 27 26 26 26 25 25 25 26 27 27 28 28
31 30 30 30 30 31 33 35 35 35 34 34 33 32 32 31 30 29 30 30 29 25 23 23 23 21 21 21 21 21 22 22 20 20 19 18 17 16 15 15 17 18 18 20 21 22 22 22 23 24 25 26 27 28 29 29 30 30 30 30 30 30 29 29 29 30 30 30 30 30 31 30 30 30 29 28 28 27 27 27 26 26 27 27 27 28 28
31 31 31 30 30 31 34 34 34 34 34 34 33 33 33 32 31 30 29 28 27 25 24 25 25 24 23 22 22 22 22 22 23 22 22 21 20 19 18 18 18 19 19 19 20 20 21 22 23 24 25 26 27 28 29 29 29 30 30 30 30 30 30 29 30 30 30 30 30 30 31 31 30 30 30 29 29 29 29 28 28 28 28 28 28 28 29
31 31 30 30 31 33 32 30 31 32 34 34 33 33 33 33 32 32 31 29 28 26 25 25 25 25 26 25 24 24 24 23 23 24 23 23 22 21 20 20 20 20 20 20 20 20 21 22 23 24 25 26 26 27 28 28 28 29 29 29 29 29 29 30 30 30 30 30 30 30 31 30 30 31 30 30 30 29 29 29 29 29 29 29 29 29 29
32 31 30 31 33 33 31 29 30 31 32 32 32 33 33 32 32 32 33 32 30 28 26 25 25 26 26 25 23 23 24 23 23 23 24 23 23 22 22 21 21 21 20 20 21 20 21 22 23 23 24 26 26 27 28 28 28 29 29 29 29 29 29 30 30 30 31 31 30 30 31 31 31 31 31 30 30 29 29 30 30 30 31 30 30 30 31
33 31 32 33 31 30 31 31 29 29 30 30 31 32 31 29 28 30 31 31 30 29 28 27 27 26 25 24 24 24 24 23 23 23 23 23 23 23 22 22 22 22 21 21 21 21 20 21 22 23 24 25 26 27 27 28 28 28 29 29 29 28 29 29 30 30 30 30 30 31 31 31 31 31 31 31 30 30 30 30 31 31 32 32 32 32 32
35 34 36 36 33 32 35 33 29 28 29 29 29 30 29 28 28 28 29 28 28 28 28 27 27 26 25 25 25 25 25 24 24 24 24 23 23 23 23 23 23 23 22 22 21 20 20 21 22 23 23 25 26 27 27 27 27 28 28 28 28 28 28 28 29 30 30 30 31 31 31 31 32 32 32 31 31 31 31 31 32 33 34 34 33 33 34
36 36 36 36 35 35 36 34 31 30 30 30 30 30 30 29 28 28 29 28 27 26 25 26 25 26 27 28 25 24 25 25 24 24 24 23 23 23 23 23 23 23 23 22 21 20 20 21 21 22 23 24 25 26 27 27 27 27 28 28 28 28 28 28 29 29 30 30 31 31 31 32 32 32 32 32 32 32 32 33 33 34 34 34 34 34 35
37 38 37 37 36 34 32 32 32 31 31 30 30 30 30 29 28 29 29 29 28 27 26 25 24 26 29 28 24 23 24 24 23 23 23 23 23 22 22 22 22 23 23 22 21 20 20 20 20 21 22 23 24 26 26 27 27 27 28 29 29 29 29 29 30 30 30 31 31 31 32 32 32 32 32 32 32 32 33 33 34 34 35 34 34 34 36
39 39 38 38 37 34 31 32 32 31 30 30 30 30 29 28 28 29 29 29 29 28 28 27 26 27 28 27 23 22 23 23 23 22 22 22 22 21 21 21 21 21 22 21 21 20 19 19 19 20 21 22 24 25 25 26 27 28 28 29 29 30 30 30 31 31 31 31 31 31 32 32 32 32 32 32 32 32 33 33 34 35 35 34 35 35 36
41 40 40 39 38 36 35 34 33 32 32 31 32 31 29 27 27 28 28 29 29 28 28 29 28 26 25 25 23 23 23 24 23 22 22 22 21 20 20 20 20 20 20 20 20 20 19 19 19 20 20 22 23 24 25 26 27 27 27 28 29 30 31 31 31 31 31 31 32 32 32 31 31 32 32 32 32 33 34 34 35 35 35 34 35 35 35
40 40 40 39 38 37 36 35 33 33 34 34 33 32 30 29 29 28 28 28 28 27 28 29 29 28 26 25 24 24 24 24 23 23 22 21 21 20 19 19 19 19 19 19 19 19 19 19 19 20 20 21 22 23 24 25 26 26 27 27 28 29 30 30 31 31 31 32 32 32 32 32 32 32 32 32 33 34 34 35 36 36 35 35 35 35 35
40 40 40 39 38 35 34 35 35 35 36 35 33 32 31 30 30 29 30 30 28 27 27 28 29 28 26 25 25 24 24 24 24 23 23 22 22 21 20 19 19 19 19 19 19 19 19 19 19 20 20 20 21 21 22 23 24 25 25 26 27 28 29 30 30 30 31 32 31 32 32 32 32 33 33 33 33 34 35 36 36 36 37 36 35 35 36
39 40 40 39 38 34 32 34 36 36 36 35 34 33 32 30 29 29 30 30 29 28 28 27 27 27 26 25 25 24 24 24 24 24 23 23 22 22 21 20 19 18 18 18 18 19 20 20 20 20 21 21 20 21 21 22 23 24 24 25 26 27 28 29 30 30 30 31 32 32 32 33 33 34 34 34 34 35 35 36 37 37 37 36 35 36 37
38 40 40 39 38 35 34 36 36 35 36 36 36 35 32 30 30 29 30 30 29 28 28 27 27 27 26 25 24 24 23 23 24 24 24 23 23 22 22 21 20 19 18 18 17 18 19 20 20 21 21 21 21 21 22 23 23 24 24 25 26 27 28 29 29 30 30 31 32 32 33 33 34 34 34 35 35 36 36 37 38 38 37 37 37 38 39
37 40 41 42 41 38 36 36 35 34 35 35 35 34 32 30 29 30 30 30 29 27 28 27 26 26 26 24 23 23 23 23 23 23 23 23 23 22 22 21 21 20 19 18 18 17 17 19 20 21 21 21 21 22 23 23 24 24 24 25 26 26 27 28 29 30 30 31 32 32 33 34 34 35 35 35 36 37 37 38 38 39 39 39 39 39 39
37 38 39 40 40 39 36 35 35 35 35 34 34 33 31 29 28 29 29 29 28 27 27 26 25 25 25 24 24 24 24 23 23 23 23 22 22 22 22 21 21 21 20 19 18 18 17 18 19 20 21 21 22 22 22 23 23 24 24 24 25 25 26 27 28 29 30 31 31 32 33 34 35 36 36 37 37 38 39 39 40 40 41 41 41 41 41
37 38 39 39 40 41 39 38 37 36 35 34 34 32 30 28 27 27 27 26 26 25 25 25 25 25 25 24 24 24 24 23 23 22 22 22 22 21 21 21 21 21 20 19 19 18 18 18 19 20 21 21 21 22 22 22 23 23 23 24 24 25 25 26 28 29 30 30 31 32 33 35 36 37 37 38 39 40 40 41 41 42 43 43 43 43 43
37 39 38 38 40 41 41 40 39 37 35 33 33 33 31 28 26 26 25 24 24 24 23 24 24 24 24 24 24 24 23 23 23 22 22 22 22 21 21 21 20 20 20 20 19 19 19 19 20 20 20 21 21 21 21 22 22 22 22 22 23 23 24 25 26 27 29 30 31 32 33 35 36 37 38 39 41 42 42 43 43 44 45 45 46 46 46
37 37 35 35 37 38 38 37 37 37 35 33 32 32 31 28 26 25 24 23 23 23 23 23 23 23 24 24 24 24 23 23 23 22 22 22 22 21 21 21 20 20 20 20 19 19 19 19 19 19 20 20 21 21 21 22 21 21 22 22 22 22 23 24 25 26 27 29 30 31 33 34 36 37 39 40 41 43 43 44 45 46 47 47 47 47 48
36 36 35 36 38 38 37 37 37 37 35 33 31 30 30 29 27 26 25 23 22 22 22 22 23 23 24 24 24 24 24 23 23 23 23 22 22 21 21 21 21 20 20 20 19 19 19 19 18 18 19 19 20 20 21 22 22 22 22 22 22 23 23 24 25 26 27 29 30 31 32 34 35 37 38 40 41 43 44 45 47 48 49 50 50 50 50
36 36 37 39 40 40 40 39 38 37 36 34 32 30 30 30 28 27 25 23 22 22 21 21 22 22 23 24 24 24 24 24 23 23 23 23 22 22 21 21 21 21 20 20 20 20 19 19 18 18 18 19 19 20 20 20 21 21 21 22 22 23 24 25 26 27 28 29 30 32 33 34 36 37 38 40 41 43 44 46 48 49 50 51 52 52 53
34 36 38 40 41 42 41 40 40 40 39 36 33 31 31 30 29 27 26 24 22 21 21 20 21 21 21 21 22 23 23 24 24 23 23 23 22 22 22 21 21 21 21 21 21 20 20 19 18 18 18 18 19 20 20 21 21 21 22 22 23 24 25 25 26 27 28 29 30 32 33 35 36 38 39 41 42 43 44 46 47 49 51 53 54 54 55
32 35 38 40 42 42 42 40 40 41 40 38 35 33 31 30 28 27 26 25 22 21 20 20 20 20 20 20 20 21 22 23 23 23 22 22 22 22 22 22 21 21 21 21 21 21 20 20 19 19 19 19 20 21 22 22 23 23 23 24 25 25 26 27 28 28 29 30 31 32 33 34 36 37 38 40 41 43 44 45 46 48 50 52 54 55 56
30 33 37 39 40 40 41 40 40 40 39 39 37 34 31 30 29 27 26 26 23 21 20 20 19 20 20 19 18 19 20 21 21 22 22 21 21 21 21 21 21 21 21 20 20 20 20 20 20 20 20 21 22 23 23 23 24 24 24 25 25 26 26 27 28 28 29 30 30 31 32 33 33 34 35 37 39 41 42 44 46 47 48 50 51 53 55
27 31 35 37 38 38 38 38 38 38 39 39 38 35 32 31 29 27 26 26 24 22 20 19 19 19 19 18 17 18 18 19 19 20 20 20 21 21 21 20 20 19 19 18 18 19 19 19 19 19 20 21 22 23 23 23 23 24 24 24 25 25 26 26 26 27 28 29 29 30 30 31 31 32 32 33 35 36 38 40 42 44 46 47 49 50 53
23 27 32 35 37 38 37 35 34 36 38 38 36 34 33 32 30 28 26 25 24 23 22 20 19 18 18 17 17 17 18 18 18 18 18 19 20 20 19 19 18 17 17 16 16 17 17 18 18 19 19 20 21 21 22 22 22 23 23 24 24 25 25 25 26 27 27 28 28 28 29 29 29 29 29 30 31 32 34 35 37 40 42 44 45 46 48
17 21 27 30 33 34 35 33 32 34 37 37 35 33 33 34 32 29 27 25 24 24 23 22 21 19 19 18 17 17 18 18 17 17 17 18 18 18 18 18 17 16 16 16 16 16 17 17 17 18 18 18 19 19 20 21 22 22 23 24 24 24 25 25 25 25 25 25 26 26 26 26 26 27 27 28 28 29 30 32 34 36 37 39 40 41 41
13 16 22 27 29 31 30 29 30 31 33 35 35 32 32 32 31 29 27 26 24 23 22 22 22 21 20 19 18 18 18 17 17 16 16 17 17 17 16 15 15 15 15 16 16 16 16 16 16 17 17 17 18 18 19 20 21 22 23 24 24 24 24 24 24 23 23 24 24 24 24 24 25 25 25 25 25 26 27 28 29 30 30 30 28 26 24
11 13 18 24 28 28 26 25 28 29 29 32 34 32 30 30 29 27 25 24 23 22 21 20 20 21 21 20 20 19 18 17 16 15 15 15 16 15 14 13 13 13 14 14 14 14 15 15 15 16 16 16 17 18 18 19 20 21 21 22 23 23 23 23 23 22 22 23 24 23 23 23 24 24 23 23 23 23 23 23 23 23 21 18 14 11 10
9 10 15 23 28 27 24 24 25 26 26 29 32 32 31 30 29 27 26 24 22 21 20 19 19 19 20 20 20 19 18 16 15 15 15 15 15 14 13 13 12 11 11 11 11 12 13 13 14 15 15 16 16 17 17 18 18 19 19 20 21 21 22 22 22 22 22 23 23 23 22 23 23 22 21 21 21 21 20 19 18 16 14 11 9 7 6
10 10 14 21 26 25 22 21 22 23 24 26 29 31 31 30 29 28 27 25 23 21 21 20 19 18 18 18 18 18 18 17 15 15 15 15 14 13 12 12 10 10 9 9 10 10 11 12 13 14 15 15 16 16 17 17 17 18 19 19 20 20 21 21 21 21 22 22 22 22 22 22 21 20 20 19 19 18 18 16 15 13 11 9 8 6 5
10 11 14 19 23 22 19 18 20 21 23 25 28 30 30 29 29 28 26 25 23 22 21 20 19 18 17 16 15 15 15 15 14 13 13 13 12 11 11 10 10 9 9 9 9 10 11 13 14 14 15 15 16 16 17 17 18 18 18 19 20 20 20 20 20 20 21 21 21 21 21 21 20 20 19 18 18 17 16 15 13 12 10 8 6 5 4
9 11 14 17 20 20 18 17 18 20 21 23 26 28 28 27 27 27 25 24 23 21 20 19 17 16 16 16 15 15 14 13 13 12 12 12 12 11 10 10 9 9 9 8 10 11 12 13 14 14 15 15 16 16 17 18 18 19 19 19 19 19 19 19 19 20 20 20 21 20 20 20 19 19 18 18 18 17 16 15 13 12 10 9 7 6 5
8 11 13 16 18 19 18 17 17 18 19 22 25 27 27 26 25 25 24 23 21 19 19 18 17 15 14 14 15 15 14 13 13 12 11 11 11 10 9 9 9 9 10 10 11 12 12 13 13 14 14 15 16 16 17 18 18 18 18 18 18 18 17 18 18 18 19 19 19 19 19 19 18 18 17 17 17 17 16 15 14 14 13 12 11 10 9
8 11 14 16 17 17 16 17 17 17 17 19 22 24 25 24 23 22 22 22 21 19 19 18 16 15 13 12 13 13 13 12 11 11 10 9 9 8 8 9 9 10 11 12 12 12 13 13 14 14 15 15 16 16 16 16 16 16 16 16 16 16 16 16 16 17 17 17 18 18 18 18 18 18 18 18 17 17 17 16 16 15 15 15 14 13 13
11 13 14 15 16 15 14 15 16 16 16 17 19 22 24 24 22 21 19 19 19 19 18 17 15 14 12 11 11 11 11 10 10 10 9 9 8 8 8 8 9 9 10 10 11 11 12 13 14 14 14 15 15 15 15 15 15 14 14 15 15 15 15 15 15 15 15 16 16 16 16 17 17 17 18 18 18 18 17 17 17 16 16 16 15 15 13
15 15 15 16 17 16 15 16 16 16 16 17 17 19 20 21 20 19 18 18 18 17 16 15 14 13 11 10 9 9 9 9 9 9 9 9 9 8 8 8 8 8 8 9 9 10 11 12 12 12 13 13 13 13 13 14 14 13 13 14 14 14 14 14 14 14 14 14 15 15 16 16 16 17 17 17 18 18 18 18 17 16 16 15 15 15 14
19 18 18 19 19 18 18 18 17 17 17 17 17 17 18 18 18 18 17 18 18 16 14 14 13 12 11 9 7 7 8 8 8 8 9 9 8 8 8 8 8 8 7 7 8 8 9 9 10 11 11 12 12 11 11 12 12 12 12 13 13 13 13 13 13 13 13 13 13 14 15 15 16 16 16 16 16 16 17 17 16 16 15 15 15 15 15
20 20 20 20 19 19 20 20 20 20 20 19 19 19 19 19 19 19 17 16 16 15 13 13 13 12 10 8 6 6 7 7 6 6 6 6 6 7 7 7 7 6 6 5 6 7 7 8 9 10 10 10 10 10 10 10 11 11 11 12 12 12 12 12 12 12 12 12 12 12 13 14 14 14 14 14 14 14 14 14 14 15 15 14 14 14 15
24 23 23 23 22 22 23 23 22 23 23 22 22 22 21 20 21 20 18 15 14 13 12 11 11 10 9 7 5 5 6 6 5 5 4 4 4 4 5 5 5 5 4 4 5 6 7 8 9 9 9 9 9 9 9 10 11 11 11 11 11 11 11 12 12 12 12 12 12 12 12 13 13 12 12 11 11 11 11 11 11 12 12 13 13 14 15
26 26 25 24 25 25 25 24 24 24 24 24 23 22 21 21 20 19 16 14 12 11 10 9 8 7 7 6 5 4 5 5 5 4 4 4 3 3 3 4 4 4 5 5 6 7 8 8 9 8 8 8 8 8 9 10 10 10 10 10 10 11 11 11 12 12 12 12 12 12 12 12 12 11 11 10 10 9 9 9 9 10 10 11 12 14 15
24 24 24 23 23 24 23 23 22 22 22 21 20 19 17 17 16 15 13 12 10 9 7 6 5 4 5 5 5 4 3 3 3 3 3 4 4 4 4 4 5 5 6 6 6 7 8 9 9 8 8 8 8 8 9 9 10 10 10 10 10 10 10 10 11 11 12 12 12 12 12 12 12 11 10 10 10 10 9 9 9 10 11 11 11 12 13
21 21 21 21 20 20 19 19 19 18 17 17 16 15 14 13 11 10 9 8 7 7 6 5 4 4 4 4 4 3 3 2 2 2 2 3 4 4 4 4 5 5 6 6 7 8 9 9 9 8 8 8 9 9 9 10 10 10 10 10 10 10 10 10 10 10 10 10 10 11 11 11 11 11 11 10 10 10 10 10 10 10 11 11 12 12 13
17 17 17 17 17 17 16 16 15 15 14 13 12 12 10 9 8 7 7 6 6 6 5 4 4 3 3 2 2 3 2 2 1 2 3 3 3 4 5 5 5 6 6 7 7 8 9 9 9 9 9 9 9 10 10 10 10 10 10 10 10 11 10 10 10 10 10 10 10 9 9 9 10 10 10 10 10 11 11 11 11 11 12 12 13 13 14
14 13 13 12 12 12 12 11 11 11 10 9 9 8 7 6 5 5 5 4 4 4 4 3 3 3 2 1 1 1 2 2 3 3 4 5 5 5 6 6 7 7 8 8 8 9 9 9 9 9 10 10 10 10 10 11 11 11 11 11 11 11 11 11 11 11 11 10 10 10 9 9 9 9 9 9 10 11 11 11 11 12 12 12 13 13 13
11 11 10 9 9 8 8 7 7 7 6 6 5 5 4 4 3 3 2 2 2 2 2 1 1 1 1 1 2 3 3 4 4 5 6 6 6 6 7 8 8 8 8 9 9 9 9 9 10 10 10 11 11 11 11 11 11 11 11 11 11 11 12 12 12 11 11 11 11 11 10 10 10 10 10 10 10 10 10 10 11 11 12 13 14 14 14
10 9 9 8 7 6 6 5 4 4 4 3 3 2 2 2 1 1 1 2 2 2 2 2 2 3 4 4 5 5 5 6 6 6 7 7 7 7 8 8 9 9 9 9 10 10 10 11 11 11 11 11 12 12 12 12 12 12 12 12 12 12 13 12 12 12 12 12 12 12 11 11 12 11 11 11 11 11 11 11 11 11 11 12 13 14 14
8 8 7 6 6 6 5 4 4 3 2 2 1 1 0 0 0 0 1 2 3 3 3 4 4 5 5 6 6 6 7 7 7 7 7 8 8 8 8 9 9 10 10 10 11 11 12 12 12 12 12 12 13 13 13 13 13 13 13 13 13 13 14 14 14 13 13 13 13 13 13 13 13 13 13 13 13 13 12 13 13 12 12 13 13 14 14
8 7 6 5 5 4 4 4 3 3 2 2 2 2 2 2 2 2 2 2 3 3 4 4 5 5 6 6 7 7 7 7 7 8 8 9 9 10 10 10 11 11 11 12 12 12 13 13 13 13 13 14 14 14 14 14 14 14 14 14 14 14 14 14 15 15 15 15 15 15 15 15 15 14 14 14 14 14 14 15 15 15 15 15 15 15 16
Wind_Direction
226 227 229 228 227 228 230 231 232 232 231 231 230 231 233 231 232 237 236 233 236 235 234 237 237 236 237 238 239 236 233 239 241 235 232 234 237 237 233 233 233 232 232 232 232 235 237 232 229 228 227 225 224 223 223 222 222 223 224 225 225 226 227 229 230 230 230 231 232 233 234 236 237 238 240 241 242 243 243 243 243 242 241 241 241 240 239
228 228 229 229 229 231 232 233 233 233 233 233 233 234 235 236 239 242 242 240 239 237 237 239 239 239 242 244 244 243 242 246 247 241 236 235 237 236 233 233 234 233 233 233 233 235 236 234 230 228 228 227 225 225 224 223 223 224 225 225 226 227 228 229 230 230 230 231 232 233 235 236 237 239 240 242 243 244 244 244 244 243 242 242 241 240 240
230 229 229 230 232 234 237 236 233 233 233 234 234 234 235 237 240 242 243 244 243 239 239 242 243 243 245 246 247 246 246 247 246 241 239 237 236 236 236 237 236 235 234 234 235 235 235 235 232 229 228 228 227 226 225 225 225 225 226 227 227 228 229 230 230 230 231 232 233 234 235 237 238 239 240 242 243 244 245 245 245 244 243 243 242 242 241
231 230 231 234 237 240 240 237 234 233 233 234 236 235 234 236 239 241 241 243 243 239 239 243 245 245 245 244 245 246 246 245 243 240 240 240 240 241 244 244 241 239 238 236 235 235 235 235 233 231 230 228 227 227 226 226 226 226 227 227 228 229 230 230 230 230 231 232 234 235 236 237 238 239 240 242 244 244 245 245 245 245 244 244 244 243 243
230 230 233 237 240 240 238 234 232 233 234 236 238 238 238 237 239 241 241 242 243 241 239 241 243 243 243 242 243 245 245 244 242 241 241 242 245 247 249 249 246 242 241 239 235 234 234 234 234 233 230 227 227 227 227 227 226 226 227 228 229 230 230 230 230 230 231 232 234 235 236 237 238 240 241 243 245 245 245 245 245 245 245 244 244 244 244
230 231 234 237 237 234 232 229 230 233 236 237 239 241 242 241 240 242 244 244 244 241 239 239 241 242 243 243 243 245 245 244 243 243 243 244 247 248 249 250 247 243 242 241 238 236 235 234 235 234 231 229 228 227 227 226 226 226 227 229 230 231 231 231 231 231 232 233 234 236 237 238 239 240 242 244 246 247 246 245 245 245 245 245 244 245 245
230 231 232 233 232 230 229 228 229 233 234 235 239 242 242 242 243 245 245 244 243 241 239 238 240 242 243 244 244 244 244 243 243 244 244 245 247 247 247 248 247 244 243 242 240 239 238 236 235 234 232 230 229 228 227 227 226 227 228 229 230 231 231 232 232 233 234 235 236 237 237 238 240 241 242 244 246 247 248 247 246 246 246 246 245 245 246
229 228 227 228 230 234 234 231 229 232 232 234 239 240 238 239 244 245 245 246 246 244 242 242 243 244 245 245 242 240 241 241 242 244 245 245 246 246 246 247 246 245 244 244 242 241 240 236 234 234 233 230 228 228 227 227 228 228 229 230 230 231 232 233 233 234 234 235 237 238 238 239 240 241 243 245 246 248 249 250 249 248 248 247 247 247 246
228 228 228 231 235 239 237 231 228 231 233 235 239 239 238 238 241 244 245 248 249 249 249 248 247 246 246 244 240 237 238 240 241 243 245 246 247 247 247 248 246 244 244 245 244 243 240 236 233 233 232 229 227 227 227 227 228 229 229 231 232 232 232 233 234 234 235 236 237 238 238 239 241 242 244 246 247 248 250 251 251 249 249 249 249 248 247
228 229 231 232 234 235 232 228 228 232 234 235 237 240 240 238 241 245 246 247 249 250 251 252 248 244 243 243 240 236 236 238 241 243 245 246 247 247 248 248 247 245 244 243 243 241 239 236 232 231 230 229 228 228 228 229 229 230 231 232 233 233 234 234 235 235 236 237 237 237 238 240 242 244 245 246 248 249 250 251 251 250 250 250 249 249 249
228 229 230 230 231 232 229 225 228 232 233 233 236 242 242 239 244 249 248 248 250 249 251 252 247 242 241 243 241 238 236 237 240 242 244 245 246 247 247 248 248 245 242 240 240 238 236 235 233 230 230 230 229 230 231 231 232 233 234 235 236 236 236 236 236 236 237 237 237 238 240 242 243 245 246 247 248 249 250 251 251 251 251 250 250 250 250
229 229 231 231 231 232 230 226 228 232 232 232 237 241 239 238 243 248 248 249 250 249 251 250 245 242 243 245 246 243 238 238 240 241 242 243 243 245 246 246 246 243 239 237 237 236 236 236 235 232 231 231 232 232 233 233 234 236 237 238 239 238 238 238 238 238 238 238 238 240 241 242 243 244 246 247 247 249 250 251 251 251 251 252 252 251 251
229 230 232 233 233 234 232 230 231 232 232 235 238 238 237 239 243 245 247 249 249 248 250 248 245 245 247 248 248 244 239 239 241 242 242 242 242 242 243 244 243 240 237 236 236 236 238 238 237 234 233 234 235 235 235 236 237 239 240 241 241 240 239 240 240 240 239 240 241 242 242 242 243 245 246 247 248 250 251 251 251 251 252 253 253 253 252
229 230 232 234 235 233 232 231 232 233 234 236 238 238 241 243 245 246 248 249 248 248 249 248 247 247 248 248 246 242 240 240 241 243 244 244 242 241 241 241 241 238 236 235 235 236 238 239 237 235 234 235 237 238 238 240 242 243 244 243 242 242 241 241 242 241 241 242 243 243 243 243 244 246 247 248 250 251 251 252 252 252 252 253 254 254 254
227 228 230 232 232 232 233 233 232 233 235 238 240 242 244 245 246 247 247 247 248 247 248 249 248 246 246 245 244 242 240 240 241 243 245 245 244 242 240 239 238 238 237 236 236 237 238 239 239 237 235 235 238 239 241 245 247 247 246 245 243 243 243 243 243 244 243 242 242 242 243 244 246 247 248 250 251 252 252 252 252 252 252 253 254 254 254
226 226 227 229 231 233 237 237 235 235 237 238 240 242 244 245 246 247 246 246 247 246 246 247 247 244 243 243 243 242 241 240 241 242 243 243 244 243 242 240 238 238 238 238 237 238 239 239 240 238 237 237 239 241 245 248 249 249 248 247 246 245 245 245 245 245 243 242 242 242 244 246 247 248 250 251 252 253 253 253 253 253 253 253 254 255 255
228 229 231 233 235 236 237 237 237 237 237 237 238 241 243 245 246 246 246 246 246 245 243 243 244 242 241 240 241 241 239 239 239 239 240 241 242 242 243 242 240 239 238 239 239 239 240 241 241 240 239 239 240 244 247 249 250 251 250 250 249 249 248 248 247 246 245 244 244 245 246 248 249 250 251 252 253 252 253 253 253 253 253 254 255 256 255
233 233 232 233 234 235 236 237 237 237 236 236 238 240 242 244 246 246 245 245 245 243 241 239 239 240 239 237 236 235 235 235 236 236 237 238 240 242 242 243 242 240 238 238 239 240 242 242 241 240 241 241 242 245 248 249 251 252 252 252 252 252 251 250 249 248 248 247 247 248 249 250 251 252 253 254 254 253 253 253 253 253 254 255 256 257 256
236 234 232 231 232 234 235 237 237 237 236 236 237 239 240 243 245 245 244 243 241 240 239 237 235 235 235 233 232 231 231 232 233 234 236 237 239 241 241 242 243 241 239 238 239 241 243 244 242 241 241 242 244 246 248 250 252 253 254 254 253 253 252 251 251 250 250 250 250 251 252 253 254 255 255 255 256 255 254 253 253 253 255 255 256 257 258
236 235 235 235 236 235 236 237 237 237 236 235 235 237 238 240 241 241 240 239 236 234 234 234 232 231 230 230 231 231 231 232 234 235 236 238 238 239 240 241 242 241 240 240 240 241 243 244 244 244 244 245 247 248 250 252 253 254 256 256 255 255 253 252 251 251 251 252 254 255 256 256 257 257 257 257 257 256 255 254 254 255 256 256 257 258 258
239 237 236 236 236 234 234 234 235 235 234 234 234 235 236 237 238 238 237 235 233 231 231 231 230 229 229 230 231 231 231 232 234 235 236 237 238 238 239 240 241 242 241 241 241 241 242 243 244 244 246 247 249 251 253 255 255 255 255 256 256 256 254 253 253 253 253 254 256 257 258 259 259 259 260 260 260 259 258 258 257 258 258 259 259 260 259
238 235 233 233 233 230 229 231 233 233 233 233 232 234 235 234 233 234 234 234 232 230 230 230 230 229 229 230 231 231 231 232 234 235 236 236 236 237 239 240 241 243 243 243 243 243 243 244 244 245 246 248 250 253 254 256 256 256 256 256 257 257 257 256 256 256 257 258 259 260 261 262 262 262 262 262 262 262 261 261 261 261 262 262 262 261 260
239 235 234 234 233 231 230 232 234 234 234 233 231 231 234 233 229 228 230 231 233 232 231 230 230 229 229 230 231 232 231 231 233 235 236 236 235 236 237 239 241 244 245 245 246 246 246 246 246 246 248 250 251 252 254 256 256 257 258 258 259 260 260 260 261 261 262 263 263 264 264 265 265 265 265 264 264 263 263 263 263 263 263 263 263 262 262
240 238 236 234 233 232 231 233 235 234 234 233 229 227 229 229 225 223 224 226 228 230 229 229 229 227 227 228 230 231 231 230 232 234 235 237 237 237 237 239 241 244 247 248 249 250 249 248 248 249 251 253 254 254 255 256 257 257 258 259 260 261 262 263 264 265 265 266 266 266 266 267 267 268 268 268 267 266 266 265 265 265 265 264 264 263 262
238 237 235 233 232 232 231 232 234 234 233 232 228 223 223 224 221 219 220 221 222 224 225 225 224 223 224 225 227 229 230 229 229 231 233 235 237 237 238 240 242 244 247 248 249 250 250 250 251 252 254 256 257 257 257 258 258 258 259 260 261 263 264 265 266 267 268 269 269 269 269 270 270 270 270 270 270 270 269 269 268 267 266 265 264 263 263
237 236 235 233 231 230 229 230 231 231 230 229 224 219 218 219 217 215 216 217 219 220 221 221 220 220 221 224 226 227 228 228 228 229 231 233 235 236 238 239 241 243 246 248 249 250 251 251 252 254 256 257 257 258 259 259 260 260 261 261 263 264 266 267 269 270 271 272 272 272 273 273 273 274 274 273 273 273 272 272 271 270 269 267 266 264 263
241 235 233 231 228 227 226 226 227 228 226 223 219 215 214 214 213 212 213 214 216 217 219 219 218 218 219 222 224 225 225 226 227 227 230 233 235 236 237 239 240 242 245 248 250 250 250 251 253 255 258 258 259 260 262 262 262 263 263 263 264 265 267 269 270 272 273 273 273 273 274 274 275 276 276 276 276 275 275 275 275 274 273 271 269 267 265
243 236 231 226 224 223 223 223 224 223 220 217 215 213 211 212 212 210 210 212 214 216 217 217 217 218 219 221 222 223 223 224 226 227 230 233 235 236 237 238 239 241 244 247 249 249 249 249 251 255 258 260 261 263 264 265 264 265 266 266 267 268 270 271 272 273 274 274 273 273 274 275 276 276 278 279 279 279 279 279 279 279 278 275 273 270 268
240 234 229 225 222 221 219 219 219 217 213 211 212 212 211 211 211 210 208 209 212 215 216 217 217 219 221 221 221 222 222 222 223 224 227 230 232 234 235 235 236 238 241 243 245 247 248 250 252 256 259 262 264 265 266 266 266 267 268 269 270 271 272 273 274 275 275 274 274 275 275 276 277 278 281 282 283 285 286 285 285 284 282 279 276 274 271
233 228 224 221 217 213 213 215 213 210 208 208 209 210 210 210 211 210 208 209 211 213 214 217 219 221 222 221 221 221 220 218 219 222 225 228 229 230 231 232 234 237 240 242 244 246 249 252 255 258 260 263 265 267 267 267 268 269 270 270 271 271 273 274 275 276 276 275 275 276 277 279 280 282 284 285 287 289 290 290 290 290 287 284 282 278 274
232 222 214 210 205 203 206 208 205 202 204 206 206 206 207 208 209 209 208 210 212 211 212 217 221 222 221 221 219 218 216 216 218 221 224 226 227 228 229 232 234 237 240 243 245 247 250 253 256 258 260 263 266 268 269 270 271 272 272 271 271 271 272 273 274 275 275 275 276 277 278 280 282 284 285 287 289 290 292 295 298 298 295 292 290 287 282
226 214 201 196 194 193 195 196 195 196 201 203 203 202 203 203 204 203 202 205 207 207 208 213 217 218 218 218 216 213 214 217 220 222 223 224 223 224 227 230 232 234 237 241 244 247 251 254 257 259 262 265 268 271 273 274 274 275 274 272 271 271 272 273 273 273 275 276 276 277 278 280 281 283 285 287 289 291 293 299 306 307 305 303 301 301 305
211 198 188 186 185 184 184 186 190 195 197 198 199 200 200 199 199 198 198 200 203 204 205 208 210 212 214 215 215 214 215 219 220 219 219 220 220 223 227 229 230 232 236 239 244 249 255 259 262 264 265 268 271 275 277 277 277 277 277 275 274 274 274 274 274 273 274 276 276 276 276 277 279 281 284 286 287 288 292 300 308 312 314 317 315 306 300
195 189 182 181 182 183 186 189 193 194 195 196 197 198 198 198 197 197 198 199 200 201 203 205 206 206 207 209 210 211 213 215 216 216 218 220 221 224 226 226 228 233 237 241 248 256 263 268 269 269 270 272 275 278 279 279 279 279 278 278 277 277 277 277 275 274 273 274 276 276 275 276 277 279 281 284 284 286 291 297 301 304 308 314 313 301 276
185 186 182 181 184 188 191 192 193 192 193 194 194 195 196 196 195 195 196 196 196 198 201 201 201 202 201 201 200 200 202 206 210 214 216 217 219 224 228 229 231 234 238 246 256 264 269 272 273 272 273 276 279 281 281 281 281 281 280 280 280 279 279 277 275 274 273 274 275 275 275 276 277 277 277 280 281 283 287 289 290 294 298 298 295 289 268
172 179 180 181 183 184 185 187 188 189 190 191 190 191 192 192 192 193 194 194 195 197 198 196 195 196 197 197 197 197 200 204 210 215 219 220 224 231 234 234 234 235 240 253 265 268 269 272 274 275 277 280 283 285 285 284 283 282 281 281 281 281 280 278 276 276 276 275 275 275 275 276 277 276 275 276 278 279 280 280 280 283 283 276 268 265 254
149 162 169 174 177 177 178 180 181 181 184 186 186 187 188 189 191 192 192 192 192 194 193 192 191 191 193 196 198 201 205 210 215 219 221 223 227 232 233 235 240 244 248 259 269 270 270 274 277 280 283 285 285 286 288 288 285 282 281 282 282 282 282 281 279 280 280 278 277 277 276 275 275 274 273 274 276 275 275 274 273 274 274 269 262 256 251
138 144 150 159 165 169 173 176 176 174 173 177 180 183 185 184 184 184 185 187 188 187 184 182 182 183 184 189 194 198 203 208 212 213 214 216 222 230 237 245 252 254 254 259 266 270 272 277 281 283 285 287 286 286 289 291 289 284 282 283 285 285 285 284 283 282 282 281 280 280 278 276 274 273 272 272 272 271 271 271 270 270 269 266 263 260 257
125 136 142 149 154 157 161 166 168 165 162 164 170 175 178 178 176 174 174 177 180 181 178 175 175 175 174 176 183 191 197 204 210 215 218 223 231 238 245 252 257 257 257 260 265 271 277 282 285 286 286 286 285 285 288 292 291 287 285 285 287 288 288 287 286 285 285 284 283 281 278 276 275 275 274 272 270 268 269 269 270 270 268 264 261 259 253
101 116 129 138 140 141 143 147 151 151 152 155 159 164 168 171 173 174 172 168 167 169 170 170 172 173 173 171 175 185 196 205 214 222 227 232 237 240 244 250 256 260 263 266 269 276 285 290 289 286 286 286 285 285 289 293 294 292 289 287 287 288 288 287 287 287 288 287 285 281 278 277 277 277 276 274 271 268 267 267 268 268 267 263 257 251 241
90 97 108 119 125 127 130 133 136 137 139 143 150 156 158 160 162 165 166 164 161 160 160 159 159 163 168 169 168 176 189 200 211 220 226 231 235 237 242 248 255 261 269 274 279 286 294 296 294 291 289 289 289 291 294 296 295 294 294 292 289 287 286 285 285 286 287 288 287 284 280 279 279 279 278 276 273 268 266 265 265 265 266 262 253 243 233
88 92 97 105 114 119 121 122 125 126 126 127 132 139 144 147 147 147 149 153 156 158 157 153 149 150 157 161 158 163 175 183 193 205 216 225 231 237 242 249 257 267 278 286 290 295 298 300 302 302 297 293 295 301 303 300 296 295 295 294 291 288 285 284 283 283 284 286 287 286 284 282 282 282 280 279 276 271 267 265 263 262 261 255 244 231 227
85 90 94 98 104 110 113 114 116 119 120 120 121 124 128 132 135 137 140 143 147 150 152 151 151 154 160 161 156 160 171 177 182 191 202 213 227 238 239 241 252 270 286 290 293 301 306 307 310 315 312 305 304 308 307 303 301 300 298 295 292 289 286 284 284 284 285 285 286 286 285 285 286 287 284 279 275 272 268 266 263 259 254 247 238 232 231
84 88 92 95 99 103 106 107 109 113 117 118 117 119 122 124 126 128 130 133 136 139 142 146 152 161 166 164 156 156 168 177 182 188 196 204 216 232 238 242 256 276 289 290 294 304 312 313 315 320 322 318 314 313 308 303 303 304 303 301 298 294 290 288 288 287 287 286 284 283 284 285 287 288 286 279 273 269 266 262 259 255 250 246 243 240 238
85 88 90 93 96 100 102 104 106 110 115 115 113 114 119 124 126 125 123 123 125 130 134 136 140 147 156 160 155 147 148 162 176 188 200 210 221 238 255 266 274 284 294 299 301 305 310 314 318 320 319 318 317 314 308 303 302 303 303 303 303 301 298 296 294 292 290 288 285 283 283 283 284 286 284 279 274 269 264 259 255 253 251 246 241 237 233
85 86 87 89 93 97 101 104 105 107 110 113 114 114 116 120 125 128 125 122 123 125 126 126 127 129 141 156 164 161 153 157 176 203 220 227 238 256 272 284 290 296 303 308 306 305 308 314 317 317 316 315 313 309 305 303 303 304 303 304 305 305 304 302 300 299 297 294 291 288 285 284 284 285 283 278 273 270 266 261 258 257 255 250 243 238 235
83 85 86 88 91 96 100 104 104 104 105 111 116 118 116 116 120 124 123 120 121 123 124 123 124 126 133 151 175 187 192 199 234 269 272 269 271 283 295 301 303 305 308 309 309 310 312 314 314 315 315 314 310 305 302 302 303 303 304 305 305 306 307 306 304 302 300 298 296 295 294 290 287 285 283 280 276 274 271 266 262 259 257 255 250 245 241
78 82 84 86 89 94 98 101 102 103 106 110 115 118 118 116 116 118 121 121 121 126 130 131 133 140 144 144 172 224 244 260 272 279 282 284 287 293 300 304 307 307 307 306 307 311 314 314 314 314 313 310 305 302 300 300 300 300 302 303 303 304 305 305 304 303 302 300 298 297 297 296 293 290 288 284 281 278 275 271 266 261 259 258 255 250 245
64 70 75 77 80 85 92 96 98 101 105 108 113 120 127 129 124 124 131 138 141 146 153 162 178 199 222 261 286 289 290 288 282 277 280 287 293 295 297 301 305 306 303 298 297 302 307 310 312 312 310 306 302 299 298 298 298 298 299 300 300 301 302 303 302 301 301 301 300 298 296 295 294 294 292 289 287 284 280 276 271 266 261 258 256 253 249
50 55 59 61 63 67 74 79 82 87 91 97 104 116 130 144 154 175 203 212 210 215 230 247 257 261 268 277 284 288 290 291 287 282 283 287 292 294 294 295 297 298 297 294 293 295 299 302 305 306 304 301 299 299 298 297 297 297 297 298 298 298 298 300 301 300 299 298 298 298 296 294 293 292 291 289 287 285 283 280 277 273 267 261 258 256 254
37 40 42 44 46 47 49 50 52 53 53 55 59 58 37 23 241 252 255 247 240 241 249 259 268 274 277 279 282 285 286 285 283 282 282 283 285 287 288 289 289 290 290 290 290 292 293 295 298 299 298 296 295 295 296 296 295 295 295 295 295 295 295 295 296 297 296 296 295 294 294 293 292 290 289 288 286 284 283 281 279 277 273 268 264 262 260
25 24 24 26 28 29 28 26 22 16 7 357 346 330 318 308 301 301 301 290 272 261 259 262 269 276 279 280 281 283 283 283 283 284 286 286 286 286 286 287 288 288 289 289 290 291 292 293 294 296 296 294 292 292 293 293 293 293 293 293 292 292 293 292 292 291 291 291 291 291 290 290 289 288 287 286 285 283 282 281 279 278 276 274 271 268 266